Location: Volkssternwarte_EN
(51.3230°N, 7.4010°E)
Time: 17:32:50
(UTC+02:00)

N. Korean satellite - Visible Passes

Search period start: 26 September 2021 00:00
Search period end: 06 October 2021 00:00
Orbit: 449 x 498 km, 97.3° (Epoch: 25 September)

Date Brightness Start Highest point End Pass type
(mag) Time Alt. Az. Time Alt. Az. Time Alt. Az.
26 Sep 7.8 06:36:43 10° NNE 06:40:09 46° E 06:43:37 10° S visible
27 Sep 9.2 06:09:18 10° NE 06:12:13 23° E 06:15:09 10° SSE visible
28 Sep 10.0 05:42:37 10° ENE 05:44:10 12° E 05:45:43 10° ESE visible
29 Sep 7.2 06:46:24 10° NNE 06:49:58 61° ESE 06:53:32 10° S visible
30 Sep 8.8 06:18:50 10° NNE 06:22:01 29° E 06:25:14 10° SSE visible
01 Oct 9.8 05:51:43 10° NE 05:53:58 16° E 05:56:13 10° SE visible
02 Oct 6.7 06:56:02 10° NNE 06:59:39 80° ESE 07:03:16 10° S visible
03 Oct 8.3 06:28:18 10° NNE 06:31:42 38° E 06:35:07 10° SSE visible
04 Oct 9.5 06:00:56 10° NE 06:03:39 20° E 06:06:22 10° SE visible
05 Oct 10.3 05:34:56 10° ENE 05:35:29 10° E 05:36:02 10° E visible
